Find Iridium Next SV146

NORAD ID: 43254 Int'l Des: 2018-030 Owner: IRIDS Country: US Constellation: Iridium NEXT operational
LEOCIRCULARPOLAR

現在のビュー

3D地球を読み込み中...

About Iridium Next SV146

Iridium Next SV146 (NORAD 43254) is a Iridium NEXT constellation satellite launched Mar 30, 2018 by IRIDS of US. It operates in LEO, CIRCULAR, POLAR orbit with a mass of 860.00 kg.

Iridium Next SV146について

説明を読み込み中...

次回通過

Passes for default location (London). Set your location on the main map for personalized predictions.

高度履歴

Loading altitude history...

軌道要素

1 43254U 18030F 26195.59253948 .00000081 00000-0 21727-4 0 9990
2 43254 86.3959 278.9597 0002377 96.6581 263.4885 14.34217643434069
Epoch: Jul 14, 2026 • Age: 9 hours

現在のステータス

高度 779.6 km
遠地点 / 近地点 N/A
速度 7.46 km/s
衛星直下点 8.62°N, 174.58°E
打ち上げ日 Mar 30, 2018
運用期間 8.2 years
タイプ communications

技術仕様

分類 Payload
質量 860.00 kg
乾燥質量 700.00 kg
総質量 860.00 kg
長さ 3.10 m
直径 1.50 m
スパン 9.40 m
形状 Half Hex Prism+2 pan
製造者 OATKGA
バスタイプ EliteBus
フェーズステータス In Orbit
所有者/国 IRIDS/US

Most Searched